Chanute, KS

7:44 PM CDT on May 22, 2017 (GMT -0500)
Chanute Martin Johnson

Weather History for KCNU - November, 2013

Change the Weather History Date:

Friday, November 1, 2013

  Actual Average Record
Temperature  
Mean Temperature 54 °F 53 °F  
Max Temperature 65 °F 64 °F 85 °F (1937)
Min Temperature 43 °F 42 °F 21 °F (1966)
Degree Days  
Heating Degree Days 11 12  
Month to date heating degree days 11 12  
Since 1 July heating degree days 298 300  
Cooling Degree Days 0 0  
Month to date cooling degree days 0 0  
Year to date cooling degree days 1560 1529  
Growing Degree Days 4 (Base 50)    
Moisture  
Dew Point 40 °F    
Average Humidity 62    
Maximum Humidity 83    
Minimum Humidity 40    
Precipitation  
Precipitation 0.00 in 0.08 in 3.10 in (1948)
Month to date precipitation 0.00 0.08  
Year to date precipitation 45.76 37.90  
Sea Level Pressure  
Sea Level Pressure 29.86 in    
Wind  
Wind Speed 8 mph (WNW)    
Max Wind Speed 21 mph    
Max Gust Speed 28 mph    
Visibility 10 miles    
Events      
T = Trace of Precipitation, MM = Missing Value Source: NWS Daily Summary

Daily Weather History Graph

Daily Weather History Graph

Search for Another Location

Airport or City:

Trip Planner

Search our weather history database for the weather conditions in past years. The results will help you decide how hot, cold, wet, or windy it might be!

Date:

Astronomy

Nov. 01, 2013 Rise Set
Actual Time 7:47 AM CDT 6:23 PM CDT
Civil Twilight 7:20 AM CDT 6:50 PM CDT
Nautical Twilight 6:49 AM CDT 7:21 PM CDT
Astronomical Twilight 6:18 AM CDT 7:51 PM CDT
Moon 5:42 AM CDT (11/1) 5:15 PM CDT (11/1)
Length of Visible Light 11h 30m
Length of Day
10h 35m
Waning Crescent, 4% of the Moon is Illuminated
Nov 1
Waning Crescent
Nov 3
New
Nov 9
First Quarter
Nov 17
Full
Nov 25
Last Quarter

Hourly Weather History & Observations

Time (CDT) Temp. Windchill Dew Point Humidity Pressure Visibility Wind Dir Wind Speed Gust Speed Precip Events Conditions
12:52 AM 48.0 °F - 42.1 °F 80% 29.72 in 10.0 mi SW 5.8 mph - N/A   Clear
1:52 AM 50.0 °F - 41.0 °F 71% 29.73 in 6.0 mi WSW 9.2 mph - N/A   Haze
2:52 AM 46.9 °F - 39.9 °F 77% 29.75 in 5.0 mi West 4.6 mph - N/A   Haze
3:52 AM 48.0 °F - 39.9 °F 74% 29.76 in 10.0 mi WNW 6.9 mph - N/A   Clear
4:52 AM 46.0 °F 42.5 °F 39.0 °F 76% 29.76 in 10.0 mi WNW 6.9 mph - N/A   Clear
5:52 AM 45.0 °F 41.8 °F 39.0 °F 80% 29.78 in 10.0 mi WNW 5.8 mph - N/A   Clear
6:52 AM 43.0 °F 39.5 °F 37.9 °F 82% 29.79 in 10.0 mi WNW 5.8 mph - N/A   Clear
7:52 AM 44.1 °F 40.8 °F 37.9 °F 79% 29.81 in 10.0 mi NW 5.8 mph - N/A   Clear
8:52 AM 46.9 °F - 39.0 °F 74% 29.83 in 10.0 mi WNW 5.8 mph - N/A   Clear
9:52 AM 54.0 °F - 42.1 °F 64% 29.85 in 8.0 mi West 5.8 mph - N/A   Clear
10:52 AM 57.9 °F - 42.1 °F 56% 29.86 in 10.0 mi WNW 9.2 mph - N/A   Overcast
11:52 AM 60.1 °F - 39.9 °F 47% 29.86 in 10.0 mi NW 11.5 mph - N/A   Clear
12:52 PM 60.1 °F - 41.0 °F 49% 29.86 in 10.0 mi NW 9.2 mph - N/A   Overcast
1:52 PM 61.0 °F - 39.9 °F 46% 29.85 in 10.0 mi WNW 11.5 mph - N/A   Mostly Cloudy
2:52 PM 64.9 °F - 39.9 °F 40% 29.84 in 10.0 mi NW 15.0 mph 21.9 mph N/A   Scattered Clouds
3:52 PM 64.0 °F - 39.9 °F 41% 29.86 in 10.0 mi WNW 17.3 mph 24.2 mph N/A   Scattered Clouds
4:52 PM 62.1 °F - 41.0 °F 46% 29.89 in 10.0 mi NW 15.0 mph 20.7 mph N/A   Scattered Clouds
5:52 PM 57.0 °F - 39.9 °F 53% 29.91 in 10.0 mi NW 8.1 mph - N/A   Clear
6:52 PM 53.1 °F - 39.9 °F 61% 29.94 in 10.0 mi NW 5.8 mph - N/A   Clear
7:52 PM 50.0 °F - 37.9 °F 63% 29.96 in 10.0 mi West 4.6 mph - N/A   Clear
8:52 PM 48.9 °F - 37.9 °F 66% 29.99 in 10.0 mi WNW 5.8 mph - N/A   Clear
9:52 PM 51.1 °F - 37.9 °F 61% 30.01 in 10.0 mi NW 12.7 mph - N/A   Mostly Cloudy
10:52 PM 48.9 °F - 37.9 °F 66% 30.03 in 10.0 mi NW 5.8 mph - N/A   Scattered Clouds
11:52 PM 46.9 °F - 37.9 °F 71% 30.04 in 10.0 mi NW 5.8 mph - N/A   Clear